This demonstration page uses our WeatherBlox Daily Observations layout. Learn more.

Left ArrowRight Arrow

Hourly Observations for January 27, 2020

Temp ( °F °C ) Dew Point ( °F °C ) Humidity (%) Winds ( mph kmh ) Pressure ( in mb ) Visibility ( mi km ) Precip ( " mm )
12:53 am 00:53 Clear 27 -2.8 25 -3.9 92 92 Calm 29.92 1013 8 13 0.00 0.00
1:53 am 01:53 Clear with Mist and Fog 24 -4.4 22 -5.6 91 91 Calm 29.92 1013 5 8 0.00 0.00
2:53 am 02:53 Clear 25 -3.9 22 -5.6 88 88 Calm 29.91 1013 7 11 0.00 0.00
3:53 am 03:53 Clear 24 -4.4 23 -5 96 96 Calm 29.90 1013 7 11 0.00 0.00
4:24 am 04:24 Partly Cloudy 24 -4.4 22 -5.6 91 91 Calm 29.92 1013 7 11 0.00 0.00
4:30 am 04:30 Mostly Cloudy with Mist and Fog 23 -5 21 -6.1 92 92 Calm 29.93 1013 2 3 0.00 0.00
4:33 am 04:33 Mostly Cloudy with Mist and Fog 23 -5 22 -5.6 96 96 Calm 29.93 1013 1 1 0.00 0.00
4:53 am 04:53 Mostly Cloudy with Freezing Fog 24 -4.4 24 -4.4 100 100 Calm 29.90 1012 0 0 0.00 0.00
5:26 am 05:26 Cloudy with Freezing Fog 25 -3.9 24 -4.4 96 96 Calm 29.93 1014 1 1 0.00 0.00
5:34 am 05:34 Cloudy with Mist and Fog 25 -3.9 25 -3.9 100 100 Calm 29.93 1014 2 3 0.00 0.00
5:36 am 05:36 Cloudy with Mist and Fog 26 -3.3 25 -3.9 96 96 Calm 29.93 1014 3 5 0.00 0.00
5:53 am 05:53 Cloudy with Mist and Fog 27 -2.8 26 -3.3 96 96 Calm 29.91 1013 5 8 0.00 0.00
6:53 am 06:53 Cloudy with Mist and Fog 28 -2.2 27 -2.8 96 96 Calm 29.91 1013 6 10 0.00 0.00
7:53 am 07:53 Cloudy with Mist and Fog 28 -2.2 27 -2.8 96 96 Calm 29.93 1013 6 10 0.00 0.00
8:53 am 08:53 Cloudy with Mist and Fog 30 -1.1 29 -1.7 96 96 Calm 29.95 1014 5 8 0.00 0.00
9:53 am 09:53 Cloudy with Mist and Fog 31 -0.6 30 -1.1 96 96 Calm 29.96 1015 6 10 0.00 0.00
10:53 am 10:53 Cloudy 33 0.6 28 -2.2 82 82 NNW 8 13 29.97 1015 10 16 0.00 0.00
11:53 am 11:53 Cloudy 34 1.1 28 -2.2 79 79 WNW 6 9 29.97 1015 10 16 0.00 0.00
12:53 pm 12:53 Cloudy 35 1.7 29 -1.7 78 78 N 6 9 29.96 1015 10 16 0.00 0.00
1:09 pm 13:09 Cloudy 35 1.7 29 -1.7 78 78 NW 3 6 29.97 1015 10 16 0.00 0.00
1:53 pm 13:53 Cloudy 34 1.1 29 -1.7 82 82 WNW 7 11 29.96 1015 10 16 0.00 0.00
2:53 pm 14:53 Cloudy 34 1.1 30 -1.1 85 85 NW 10 17 29.96 1015 9 14 0.00 0.00
3:53 pm 15:53 Cloudy 34 1.1 30 -1.1 85 85 NW 8 13 29.98 1015 8 13 0.00 0.00
4:53 pm 16:53 Cloudy 34 1.1 29 -1.7 82 82 WNW 7 11 30.00 1016 9 14 0.00 0.00
5:53 pm 17:53 Cloudy 34 1.1 29 -1.7 82 82 WNW 8 13 30.01 1016 7 11 0.00 0.00
6:53 pm 18:53 Cloudy 34 1.1 29 -1.7 82 82 WNW 6 9 30.03 1017 8 13 0.00 0.00
7:53 pm 19:53 Cloudy 34 1.1 29 -1.7 82 82 WNW 6 9 30.04 1017 7 11 0.00 0.00
8:53 pm 20:53 Cloudy 33 0.6 29 -1.7 85 85 W 3 6 30.06 1018 7 11 0.00 0.00
9:53 pm 21:53 Cloudy with Mist and Fog 33 0.6 30 -1.1 89 89 WNW 6 9 30.06 1018 6 10 0.00 0.00
10:53 pm 22:53 Cloudy with Mist and Fog 33 0.6 30 -1.1 89 89 WNW 7 11 30.07 1018 6 10 0.00 0.00
11:53 pm 23:53 Cloudy 34 1.1 30 -1.1 85 85 WNW 7 11 30.07 1018 7 11 0.00 0.00

Powered by AerisWeather